Location: Cherryland
(37.6794°N, 122.1033°W)
Time: 14:56:01
(UTC+00:00)

Cosmos 1743 - Pass Details

Date: 14 December 2025
Orbit: 400 x 407 km, 82.5° (Epoch: 17 January)

Event Time Altitude Azimuth Distance (km) Brightness Sun altitude
Rises 14:15:27 0° 208° (SSW) 2,347 6.0 -11.7°
Reaches altitude 10° 14:17:39 10° 221° (SW) 1,492 4.8 -11.3°
Maximum altitude 14:20:28 27° 282° (WNW) 836 3.2 -10.8°
Drops below altitude 10° 14:23:20 10° 343° (NNW) 1,507 4.7 -10.2°
Sets 14:25:35 0° 355° (N) 2,377 5.8 -9.8°
